Weather History for St. Joseph, MO

Change the Weather History Date:

Wednesday, July 24, 2013

  Actual Average Record
Temperature  
Mean Temperature 71 °F 77 °F  
Max Temperature 85 °F 87 °F 108 °F (1934)
Min Temperature 57 °F 67 °F 54 °F (2003)
Degree Days  
Heating Degree Days 0 0  
Month to date heating degree days 0 0  
Since 1 June heating degree days 15 8  
Since 1 July heating degree days 0 0  
Cooling Degree Days 6 12  
Month to date cooling degree days 313 286  
Year to date cooling degree days 714 666  
Since 1 June cooling degree days 588 553  
Growing Degree Days 20 (Base 50)    
Moisture  
Dew Point 59 °F    
Average Humidity 67    
Maximum Humidity 93    
Minimum Humidity 40    
Precipitation  
Precipitation 0.00 in 0.19 in 1.56 in (1979)
Month to date precipitation 0.19 3.96  
Year to date precipitation 16.33 21.09  
Sea Level Pressure  
Sea Level Pressure 30.01 in    
Wind  
Wind Speed 5 mph (NNE)    
Max Wind Speed 13 mph    
Max Gust Speed 18 mph    
Visibility 10 miles    
Events      
T = Trace of Precipitation, MM = Missing Value Source: NWS Daily Summary

Daily Weather History Graph

Daily Weather History Graph

Search for Another Location

Airport:

Trip Planner

Search our weather history database for the weather conditions in past years. The results will help you decide how hot, cold, wet, or windy it might be!

Date:

Astronomy

Jul. 24, 2013 Rise Set
Actual Time 6:11 AM CDT 8:40 PM CDT
Civil Twilight 5:40 AM CDT 9:10 PM CDT
Nautical Twilight 5:02 AM CDT 9:49 PM CDT
Astronomical Twilight 4:19 AM CDT 10:31 PM CDT
Moon 9:47 PM CDT (7/24) 8:32 AM CDT (7/24)
Length of Visible Light 15h 30m
Length of Day
14h 28m
Waning Gibbous, 94% of the Moon is Illuminated
Jul 24
Waning Gibbous
Jul 29
Last Quarter
Aug 6
New
Aug 14
First Quarter
Aug 20
Full

Hourly Weather History & Observations

Time (CDT) Temp. Heat Index Dew Point Humidity Pressure Visibility Wind Dir Wind Speed Gust Speed Precip Events Conditions
12:53 AM 66.9 °F - 57.9 °F 73% 29.96 in 10.0 mi NE 4.6 mph - N/A   Clear
1:53 AM 64.0 °F - 57.9 °F 80% 29.96 in 10.0 mi North 4.6 mph - N/A   Clear
2:53 AM 62.1 °F - 57.0 °F 84% 29.97 in 10.0 mi North 4.6 mph - N/A   Clear
3:53 AM 62.1 °F - 57.9 °F 86% 29.99 in 10.0 mi NNW 3.5 mph - N/A   Clear
4:53 AM 57.0 °F - 55.0 °F 93% 30.01 in 10.0 mi Calm Calm - N/A   Clear
5:53 AM 57.9 °F - 55.9 °F 93% 30.02 in 10.0 mi North 5.8 mph - N/A   Clear
6:53 AM 59.0 °F - 55.9 °F 90% 30.02 in 10.0 mi Calm Calm - N/A   Clear
7:53 AM 64.0 °F - 59.0 °F 84% 30.02 in 10.0 mi North 5.8 mph - N/A   Clear
8:53 AM 69.1 °F - 61.0 °F 75% 30.04 in 10.0 mi North 6.9 mph - N/A   Clear
9:53 AM 73.9 °F - 61.0 °F 64% 30.04 in 10.0 mi NNE 3.5 mph - N/A   Clear
10:53 AM 77.0 °F - 57.9 °F 52% 30.04 in 10.0 mi Calm Calm - N/A   Clear
11:53 AM 80.1 °F 80.9 °F 60.1 °F 50% 30.04 in 10.0 mi North 5.8 mph - N/A   Clear
12:53 PM 81.0 °F 81.3 °F 59.0 °F 47% 30.03 in 10.0 mi NNE 9.2 mph 16.1 mph N/A   Clear
1:53 PM 82.0 °F 82.4 °F 60.1 °F 47% 30.03 in 10.0 mi North 11.5 mph - N/A   Clear
2:53 PM 84.0 °F 83.8 °F 59.0 °F 43% 30.02 in 10.0 mi North 10.4 mph - N/A   Clear
3:53 PM 84.0 °F 84.4 °F 61.0 °F 46% 30.01 in 10.0 mi NNE 8.1 mph - N/A   Clear
4:53 PM 84.0 °F 84.0 °F 60.1 °F 44% 30.00 in 10.0 mi Calm Calm - N/A   Clear
5:53 PM 84.0 °F 83.5 °F 57.9 °F 41% 29.99 in 10.0 mi NNW 3.5 mph - N/A   Clear
6:53 PM 82.9 °F 82.8 °F 59.0 °F 44% 29.99 in 10.0 mi NE 6.9 mph - N/A   Clear
7:53 PM 79.0 °F - 60.1 °F 52% 30.00 in 10.0 mi NE 5.8 mph - N/A   Clear
8:53 PM 75.9 °F - 61.0 °F 60% 30.00 in 10.0 mi Calm Calm - N/A   Clear
9:53 PM 75.0 °F - 57.9 °F 55% 30.01 in 10.0 mi East 4.6 mph - N/A   Clear
10:53 PM 73.9 °F - 57.9 °F 57% 30.02 in 10.0 mi East 5.8 mph - N/A   Clear
11:53 PM 68.0 °F - 59.0 °F 73% 30.03 in 10.0 mi Calm Calm - N/A   Clear